Regional Weather Roundup
Issued by NWS

Home | Current Version | Previous Version | Text Only | Print | Product List | Glossary On
Versions: 1 2 3 4 5 6 7 8 9 10 11 12 13 14 15 16 17 18 19 20 21 22 23 24 25 26 27 28 29 30 31 32 33 34 35 36 37 38 39 40 41 42 43 44 45 46 47 48 49 50
000
ASUS44 KOUN 302300
RWROK

WEATHER ROUNDUP FOR OKLAHOMA
NATIONAL WEATHER SERVICE NORMAN OK
600 PM CDT THU JUN 30 2016

NOTE: "FAIR" INDICATES FEW OR NO CLOUDS BELOW 12,000 FEET WITH NO
      SIGNIFICANT WEATHER AND/OR OBSTRUCTIONS TO VISIBILITY.

OKZ001>007-009>012-014-015-017-010000-
NORTHWEST OKLAHOMA AND THE PANHANDLE

CITY           SKY/WX    TMP DP  RH WIND       PRES   REMARKS
GAGE           SUNNY     91  63  39 SE6       29.97F HX  92
GUYMON         CLOUDY    89  58  34 E13       30.00S
$$

OKZ016-021>023-033>039-044-045-010000-
SOUTHWEST OKLAHOMA

CITY           SKY/WX    TMP DP  RH WIND       PRES   REMARKS
LAWTON/REGL    MOSUNNY   94  66  39 S10       29.93F HX  97
LAWTON/FT SILL MOSUNNY   90  71  53 S12       29.92F HX  96
FREDERICK      CLOUDY    89  69  51 E14       29.91F HX  93
CLINTON        SUNNY     92  61  35 S6        29.98F HX  92
HOBART         SUNNY     91  66  43 S9        29.95F HX  93
ALTUS AFB      SUNNY     94  64  37 S9        29.93F HAZE    HX  95
$$

OKZ018>020-024>031-010000-
CENTRAL OKLAHOMA

CITY           SKY/WX    TMP DP  RH WIND       PRES   REMARKS
OKLAHOMA CITY  PTSUNNY   92  67  43 S13       29.93F HX  95
OKC/WILEY POST CLOUDY    93  69  45 S13       29.94F HX  98
OKC/TINKER AFB MOSUNNY   90  68  47 S13       29.94F HX  94
STILLWATER     RAIN      71  67  87 W14G23    29.94R FOG
GUTHRIE        CLOUDY    83  72  69 S5        29.93S
$$

OKZ008-013-054>072-010000-
NORTHEAST OKLAHOMA

CITY           SKY/WX    TMP DP  RH WIND       PRES   REMARKS
TULSA          PTSUNNY   94  68  42 S8G24     29.89F HX  98
TULSA/JONES    SUNNY     90  67  46 SW7       29.91F HX  93
PONCA CITY     PTSUNNY   93  70  46 SE12      29.90F HX  99
BARTLESVILLE   CLOUDY    81  62  52 VRB7      29.95R
MUSKOGEE       MOSUNNY   92  68  45 SW10      29.93F HX  96
$$

OKZ032-040>043-046>053-073>077-010000-
SOUTH CENTRAL/SOUTHEAST OKLAHOMA

CITY           SKY/WX    TMP DP  RH WIND       PRES   REMARKS
MCALESTER      SUNNY     91  66  43 SW10      29.94F HX  93
$$





USA.gov is the U.S. government's official web portal to all federal, state and local government web resources and services.